Simultaneous Nadir Overpasses (SNOs) Predictions

Prediction of SNOs between NOAA-19 and METOP-C Satellite Orbit:

Table of predicted SNOs for the next 14.0 days since TLE Epoch: 9/4/2020
Index Date (NOAA-19) Time (NOAA-19) Lat,Lon (NOAA-19) SZA (NOAA-19 ) Date (METOP-C) Time (METOP-C) Lat,Lon (METOP-C) SZA (METOP-C ) Distance(km) Time Diff (sec)
1 09/12/2020 22:02:22 -80.17, 53.27 102.68 09/12/2020 22:03:35 -80.17, 53.32 102.65 1.14 73
2 09/12/2020 22:53:28 80.17,-139.62 77.33 09/12/2020 22:54:16 80.15,-139.58 77.33 2.64 48
3 09/12/2020 23:44:22 -80.16, 27.93 102.65 09/12/2020 23:44:57 -80.16, 27.84 102.65 1.85 35
4 09/13/2020 00:35:28 80.16,-164.95 77.36 09/13/2020 00:35:38 80.14,-165.06 77.34 3.50 10
5 09/13/2020 01:26:23 -80.17, 2.28 102.63 09/13/2020 01:26:19 -80.15, 2.36 102.64 2.65 4
6 09/13/2020 02:17:28 80.15, 169.72 77.39 09/13/2020 02:16:59 80.15, 169.77 77.39 0.84 29
7 09/13/2020 03:08:23 -80.16, -23.05 102.60 09/13/2020 03:07:41 -80.13, -23.12 102.63 2.67 42
8 09/13/2020 03:59:28 80.14, 144.39 77.42 09/13/2020 03:58:21 80.14, 144.28 77.40 2.03 67
